Weather History for Branson, MO

Change the Weather History Date:

Friday, December 14, 2012

  Actual Average (KHRO) Record (KHRO)
Temperature  
Mean Temperature 42 °F 38 °F  
Max Temperature 50 °F 48 °F 74 °F (1929)
Min Temperature 33 °F 28 °F 0 °F (1914)
Degree Days  
Heating Degree Days 24 27  
Month to date heating degree days 352  
Since 1 July heating degree days 1116  
Cooling Degree Days 0 0  
Month to date cooling degree days 0  
Year to date cooling degree days 1416  
Moisture  
Dew Point 29 °F    
Average Humidity 63    
Maximum Humidity 93    
Minimum Humidity 37    
Precipitation  
Precipitation 0.08 in 0.10 in 1.76 in (1987)
Month to date precipitation 1.59  
Year to date precipitation 42.53  
Snow  
Snow 0.00 in 0.00 in 7.00 in (1916)
Month to date snowfall 0.0  
Since 1 July snowfall 0.5  
Snow Depth -    
Sea Level Pressure  
Sea Level Pressure 30.08 in    
Wind  
Wind Speed 6 mph (SE)    
Max Wind Speed 15 mph    
Max Gust Speed 22 mph    
Visibility 9 miles    
Events Rain    
T = Trace of Precipitation, MM = Missing Value Source: NWS Daily Summary

Daily Weather History Graph

Daily Weather History Graph

Search for Another Location

Airport:

Trip Planner

Search our weather history database for the weather conditions in past years. The results will help you decide how hot, cold, wet, or windy it might be!

Date:

Astronomy

Dec. 14, 2012 Rise Set
Actual Time 7:17 AM CST 4:58 PM CST
Civil Twilight 6:48 AM CST 5:27 PM CST
Nautical Twilight 6:16 AM CST 5:59 PM CST
Astronomical Twilight 5:44 AM CST 6:30 PM CST
Moon 8:23 AM CST (12/14) 6:49 PM CST (12/14)
Length of Visible Light 10h 38m
Length of Day
9h 41m
Waxing Crescent, 3% of the Moon is Illuminated
Dec 14
Waxing Crescent
Dec 19
First Quarter
Dec 28
Full
Jan 4
Last Quarter
Jan 11
New

Hourly Weather History & Observations

Time (CST) Temp. Windchill Dew Point Humidity Pressure Visibility Wind Dir Wind Speed Gust Speed Precip Events Conditions
12:15 AM 35.6 °F 32.8 °F 24.8 °F 65% 30.18 in 10.0 mi SE 3.5 mph - N/A   Clear
12:35 AM 35.6 °F 31.7 °F 24.8 °F 65% 30.19 in 10.0 mi SE 4.6 mph - N/A   Clear
12:55 AM 37.4 °F 33.8 °F 24.8 °F 60% 30.17 in 10.0 mi ESE 4.6 mph - N/A   Clear
1:15 AM 35.6 °F - 23.0 °F 60% 30.18 in 10.0 mi Calm Calm - N/A   Clear
1:35 AM 37.4 °F 34.9 °F 23.0 °F 56% 30.18 in 10.0 mi ESE 3.5 mph - N/A   Clear
1:55 AM 37.4 °F 34.9 °F 23.0 °F 56% 30.18 in 10.0 mi ESE 3.5 mph - N/A   Clear
2:15 AM 35.6 °F 31.7 °F 24.8 °F 65% 30.18 in 10.0 mi ESE 4.6 mph - N/A   Clear
2:35 AM 35.6 °F 31.7 °F 24.8 °F 65% 30.19 in 10.0 mi SE 4.6 mph - N/A   Clear
2:55 AM 35.6 °F 31.7 °F 24.8 °F 65% 30.19 in 10.0 mi SE 4.6 mph - N/A   Clear
3:15 AM 35.6 °F 30.7 °F 24.8 °F 65% 30.18 in 10.0 mi SE 5.8 mph - N/A   Clear
3:35 AM 35.6 °F 30.7 °F 23.0 °F 60% 30.17 in 10.0 mi ESE 5.8 mph - N/A   Clear
3:55 AM 33.8 °F 28.6 °F 24.8 °F 70% 30.17 in 10.0 mi SE 5.8 mph - N/A   Clear
4:35 AM 35.6 °F 31.7 °F 23.0 °F 60% 30.17 in 10.0 mi SE 4.6 mph - N/A   Clear
5:15 AM 33.8 °F 29.6 °F 23.0 °F 65% 30.16 in 10.0 mi SE 4.6 mph - N/A   Clear
5:35 AM 35.6 °F 32.8 °F 23.0 °F 60% 30.17 in 10.0 mi SE 3.5 mph - N/A   Clear
6:55 AM 35.6 °F - 24.8 °F 65% 30.18 in 10.0 mi Calm Calm - N/A   Scattered Clouds
7:55 AM 37.4 °F 32.8 °F 24.8 °F 60% 30.18 in 10.0 mi SSE 5.8 mph - N/A   Mostly Cloudy
8:46 AM 39.2 °F 34.2 °F 26.6 °F 61% 30.18 in 10.0 mi ESE 6.9 mph - N/A   Mostly Cloudy
9:46 AM 42.8 °F 38.0 °F 24.8 °F 49% 30.18 in 10.0 mi SE 8.1 mph - N/A   Mostly Cloudy
10:45 AM 46.4 °F 42.4 °F 26.6 °F 46% 30.17 in 10.0 mi SSE 8.1 mph - N/A   Overcast
11:45 AM 48.2 °F - 26.6 °F 43% 30.14 in 10.0 mi SE 8.1 mph - N/A   Overcast
12:49 PM 48.2 °F - 30.2 °F 50% 30.11 in 10.0 mi ESE 5.8 mph - N/A   Overcast
1:48 PM 50.0 °F - 30.2 °F 47% 30.08 in 10.0 mi ESE 8.1 mph - N/A   Overcast
2:47 PM 50.0 °F - 32.0 °F 50% 30.05 in 10.0 mi SE 8.1 mph - N/A   Overcast
3:45 PM 50.0 °F - 32.0 °F 50% 30.04 in 10.0 mi SE 5.8 mph - N/A   Overcast
4:45 PM 50.0 °F - 26.6 °F 40% 30.01 in 10.0 mi SE 10.4 mph - N/A   Overcast
5:54 PM 50.0 °F - 24.8 °F 37% 30.00 in 10.0 mi SE 10.4 mph - N/A   Overcast
6:47 PM 48.2 °F - 24.8 °F 40% 30.00 in 10.0 mi SSE 11.5 mph 17.3 mph N/A   Overcast
7:48 PM 46.4 °F 40.1 °F 28.4 °F 50% 29.95 in 10.0 mi SE 15.0 mph 21.9 mph N/A   Overcast
8:15 PM 46.4 °F 41.1 °F 28.4 °F 50% 29.98 in 10.0 mi SSE 11.5 mph 19.6 mph N/A   Mostly Cloudy
8:35 PM 44.6 °F 38.4 °F 32.0 °F 61% 29.98 in 7.0 mi SSE 12.7 mph - N/A Rain Light Rain
8:51 PM 44.6 °F 38.4 °F 35.6 °F 71% 29.99 in 8.0 mi South 12.7 mph - N/A Rain Light Rain
8:55 PM 44.6 °F 40.2 °F 35.6 °F 71% 29.99 in 3.0 mi SSE 8.1 mph - 0.01 in Rain Light Rain
9:15 PM 41.0 °F 36.4 °F 39.2 °F 93% 29.97 in 2.5 mi SSE 6.9 mph - 0.05 in Rain Rain
9:55 PM 41.0 °F 35.2 °F 39.2 °F 93% 29.93 in 10.0 mi ESE 9.2 mph - 0.06 in   Overcast
10:15 PM 41.0 °F 34.3 °F 39.2 °F 93% 29.91 in 5.0 mi SE 11.5 mph - 0.01 in Rain Light Rain
10:35 PM 42.8 °F 36.6 °F 39.2 °F 87% 29.91 in 10.0 mi SE 11.5 mph - 0.01 in   Overcast
10:55 PM 42.8 °F 36.6 °F 39.2 °F 87% 29.90 in 10.0 mi SE 11.5 mph - 0.01 in   Overcast
11:15 PM 44.6 °F 38.8 °F 39.2 °F 81% 29.88 in 10.0 mi SE 11.5 mph - N/A   Overcast
11:35 PM 44.6 °F 39.2 °F 39.2 °F 81% 29.88 in 10.0 mi SE 10.4 mph - N/A   Overcast
11:55 PM 44.6 °F 38.1 °F 39.2 °F 81% 29.86 in 10.0 mi SE 13.8 mph - N/A   Overcast